Regional Weather Roundup
Issued by NWS

Home | Current Version | Previous Version | Graphics & Text | Print | Product List | Glossary On
Versions: 1 2 3 4 5 6 7 8 9 10 11 12 13 14 15 16 17 18 19 20 21 22 23 24 25 26 27 28 29 30 31 32 33 34 35 36 37 38 39 40 41 42 43 44 45 46 47 48 49 50
000
ASUS44 KMEG 201910
RWRTN
TENNESSEE HOURLY STATE WEATHER ROUNDUP
NATIONAL WEATHER SERVICE MEMPHIS TN
200 PM CDT SUN MAY 20 2018

TNZ002-004-019-021-049-052-054-088>092-202000-
WEST TENNESSEE

CITY           SKY/WX    TMP DP  RH WIND       PRES   REMARKS
MEMPHIS INTL   FAIR      91  69  48 NE3       30.04F HX  96
NWS MEMPHIS      N/A     89 N/A N/A MISG        N/A
JACKSON        FAIR      89  72  56 N7        30.07F HX  96
DYERSBURG      FAIR      89  71  55 CALM      30.06F HX  95
SOMERVILLE     MOSUNNY   73  68  83 VRB5      30.05F
COVINGTON      PTSUNNY   88  72  58 NE6       30.05F HX  94
BOLIVAR        PTSUNNY   84  72  65 CALM      30.07F
PARIS          PTSUNNY   86  70  58 CALM      30.09F HX  90
HUNTINGDON     MOSUNNY   88  72  58 CALM      30.08F HX  94
LEXINGTON      SUNNY     88  70  55 SW3       30.08F HX  92
SELMER         MOSUNNY   88  70  55 VRB5      30.07F HX  92
SAVANNAH       MOSUNNY   88  70  55 VRB3      30.07F HX  92
$$

TNZ008-025-027-028-033-062-065-066-202000-
NORTH MIDDLE TENNESSEE

CITY           SKY/WX    TMP DP  RH WIND       PRES   REMARKS
NASHVILLE      PTSUNNY   91  64  40 NE6       30.10F HX  92
DICKSON        PTCLDY    86  68  54 MISG      30.11F
PORTLAND       MOSUNNY   86  68  54 CALM      30.11F
CLARKSVILLE    FAIR      86  67  52 SW6       30.10F
SMYRNA         FAIR      88  66  48 N7        30.11F HX  90
MURFREESBORO   PTCLDY    88  64  45 CALM      30.08F
COOKEVILLE     MOSUNNY   84  66  54 VRB3      30.12F
LIVINGSTON     CLEAR     84  61  45 NW5       30.14F
GALLATIN       SUNNY     88  66  48 CALM      30.13F HX  90
CROSSVILLE     FAIR      83  63  50 NW3       30.17F
$$

TNZ061-075-076-078-094-096-097-202000-
SOUTH MIDDLE TENNESSEE

CITY           SKY/WX    TMP DP  RH WIND       PRES   REMARKS
LEWISBURG      PTCLDY    84  70  61 S3        30.10F
FAYETTEVILLE   PTSUNNY   84  70  61 VRB5      30.10F HAZE
TULLAHOMA      MOSUNNY   86  68  54 VRB7      30.10F
WINCHESTER     SUNNY     82  66  57 S8        30.10F
MCMINNVILLE    SUNNY     79  64  61 NE5       30.12F
COLUMBIA       SUNNY     88  66  48 VRB6      30.09F HX  90
SHELBYVILLE    MOSUNNY   88  70  55 NW10      30.10F HX  92
$$

TNZ017-018-042-046-047-202000-
NORTHEAST TENNESSEE

CITY           SKY/WX    TMP DP  RH WIND       PRES   REMARKS
TRI CITIES     PTSUNNY   84  67  56 N6        30.16F
ELIZABETHTON   FAIR      82  64  54 VRB7      30.16F
GREENEVILLE    PTCLDY    82  63  51 W3G12     30.17S
$$

TNZ012-013-036-069-073-074-202000-
CENTRAL EAST TENNESSEE

CITY           SKY/WX    TMP DP  RH WIND       PRES   REMARKS
KNOXVILLE      CLOUDY    86  67  52 W7        30.12F
OAK RIDGE      FAIR      88  66  48 VRB3      30.13F HX  90
DOWNTOWN KNOXV SUNNY     90  64  43 W5        30.12F HX  91
GATLINBURG     MOSUNNY   84  66  54 CALM      30.13F
MORRISTOWN     SUNNY     82  66  57 NW7       30.15F
JACKSBORO      MOSUNNY   82  68  61 E5        30.17F
$$

TNZ083-085-099-202000-
SOUTHEAST TENNESSEE

CITY           SKY/WX    TMP DP  RH WIND       PRES   REMARKS
CHATTANOOGA    PTSUNNY   91  61  36 N5        30.09F HX  91
DAYTON         CLEAR     88  72  58 NE5       30.09F HX  94
$$

SKY/WX REPORTED AS FAIR MEANS FEW OR NO CLOUDS BELOW
12 THOUSAND FEET.





USA.gov is the U.S. government's official web portal to all federal, state and local government web resources and services.